Index of /20260424/WXO-DD/model_gdps/15km/12/147
Name Last modified Size Description
Parent Directory -
20260424T12Z_MSC_GDPS_AirTemp_AGL-120m_LatLon0.15_PT147H.grib2 2026-04-24 16:28 912K
20260424T12Z_MSC_GDPS_AirTemp_AGL-2m_LatLon0.15_PT147H.grib2 2026-04-24 16:28 1.0M
20260424T12Z_MSC_GDPS_AirTemp_AGL-40m_LatLon0.15_PT147H.grib2 2026-04-24 16:28 815K
20260424T12Z_MSC_GDPS_AirTemp_AGL-80m_LatLon0.15_PT147H.grib2 2026-04-24 16:28 804K
20260424T12Z_MSC_GDPS_AirTemp_IsbL-0001_LatLon0.15_PT147H.grib2 2026-04-24 16:28 712K
20260424T12Z_MSC_GDPS_AirTemp_IsbL-0005_LatLon0.15_PT147H.grib2 2026-04-24 16:28 748K
20260424T12Z_MSC_GDPS_AirTemp_IsbL-0010_LatLon0.15_PT147H.grib2 2026-04-24 16:28 756K
20260424T12Z_MSC_GDPS_AirTemp_IsbL-0020_LatLon0.15_PT147H.grib2 2026-04-24 16:28 781K
20260424T12Z_MSC_GDPS_AirTemp_IsbL-0030_LatLon0.15_PT147H.grib2 2026-04-24 16:28 745K
20260424T12Z_MSC_GDPS_AirTemp_IsbL-0050_LatLon0.15_PT147H.grib2 2026-04-24 16:28 796K
20260424T12Z_MSC_GDPS_AirTemp_IsbL-0100_LatLon0.15_PT147H.grib2 2026-04-24 16:28 1.0M
20260424T12Z_MSC_GDPS_AirTemp_IsbL-0150_LatLon0.15_PT147H.grib2 2026-04-24 16:28 1.0M
20260424T12Z_MSC_GDPS_AirTemp_IsbL-0175_LatLon0.15_PT147H.grib2 2026-04-24 16:28 960K
20260424T12Z_MSC_GDPS_AirTemp_IsbL-0200_LatLon0.15_PT147H.grib2 2026-04-24 16:28 1.0M
20260424T12Z_MSC_GDPS_AirTemp_IsbL-0225_LatLon0.15_PT147H.grib2 2026-04-24 16:28 1.0M
20260424T12Z_MSC_GDPS_AirTemp_IsbL-0250_LatLon0.15_PT147H.grib2 2026-04-24 16:28 1.0M
20260424T12Z_MSC_GDPS_AirTemp_IsbL-0275_LatLon0.15_PT147H.grib2 2026-04-24 16:28 1.0M
20260424T12Z_MSC_GDPS_AirTemp_IsbL-0300_LatLon0.15_PT147H.grib2 2026-04-24 16:28 1.0M
20260424T12Z_MSC_GDPS_AirTemp_IsbL-0350_LatLon0.15_PT147H.grib2 2026-04-24 16:28 924K
20260424T12Z_MSC_GDPS_AirTemp_IsbL-0400_LatLon0.15_PT147H.grib2 2026-04-24 16:28 937K
20260424T12Z_MSC_GDPS_AirTemp_IsbL-0450_LatLon0.15_PT147H.grib2 2026-04-24 16:28 960K
20260424T12Z_MSC_GDPS_AirTemp_IsbL-0500_LatLon0.15_PT147H.grib2 2026-04-24 16:28 1.0M
20260424T12Z_MSC_GDPS_AirTemp_IsbL-0550_LatLon0.15_PT147H.grib2 2026-04-24 16:28 801K
20260424T12Z_MSC_GDPS_AirTemp_IsbL-0600_LatLon0.15_PT147H.grib2 2026-04-24 16:28 898K
20260424T12Z_MSC_GDPS_AirTemp_IsbL-0650_LatLon0.15_PT147H.grib2 2026-04-24 16:28 926K
20260424T12Z_MSC_GDPS_AirTemp_IsbL-0700_LatLon0.15_PT147H.grib2 2026-04-24 16:28 958K
20260424T12Z_MSC_GDPS_AirTemp_IsbL-0750_LatLon0.15_PT147H.grib2 2026-04-24 16:28 1.0M
20260424T12Z_MSC_GDPS_AirTemp_IsbL-0800_LatLon0.15_PT147H.grib2 2026-04-24 16:28 1.1M
20260424T12Z_MSC_GDPS_AirTemp_IsbL-0850_LatLon0.15_PT147H.grib2 2026-04-24 16:28 1.1M
20260424T12Z_MSC_GDPS_AirTemp_IsbL-0875_LatLon0.15_PT147H.grib2 2026-04-24 16:28 1.1M
20260424T12Z_MSC_GDPS_AirTemp_IsbL-0900_LatLon0.15_PT147H.grib2 2026-04-24 16:28 1.1M
20260424T12Z_MSC_GDPS_AirTemp_IsbL-0925_LatLon0.15_PT147H.grib2 2026-04-24 16:28 1.1M
20260424T12Z_MSC_GDPS_AirTemp_IsbL-0950_LatLon0.15_PT147H.grib2 2026-04-24 16:28 1.1M
20260424T12Z_MSC_GDPS_AirTemp_IsbL-0970_LatLon0.15_PT147H.grib2 2026-04-24 16:28 1.2M
20260424T12Z_MSC_GDPS_AirTemp_IsbL-0985_LatLon0.15_PT147H.grib2 2026-04-24 16:28 1.2M
20260424T12Z_MSC_GDPS_AirTemp_IsbL-1000_LatLon0.15_PT147H.grib2 2026-04-24 16:28 1.1M
20260424T12Z_MSC_GDPS_AirTemp_IsbL-1015_LatLon0.15_PT147H.grib2 2026-04-24 16:28 1.1M
20260424T12Z_MSC_GDPS_Albedo_Sfc_LatLon0.15_PT147H.grib2 2026-04-24 16:28 243K
20260424T12Z_MSC_GDPS_CAPE_Sfc_LatLon0.15_PT147H.grib2 2026-04-24 16:28 4.0M
20260424T12Z_MSC_GDPS_CIN_Sfc_LatLon0.15_PT147H.grib2 2026-04-24 16:28 2.9M
20260424T12Z_MSC_GDPS_ConvectivePrecip-Accum_Sfc_LatLon0.15_PT147H.grib2 2026-04-24 16:28 3.7M
20260424T12Z_MSC_GDPS_DewPointDepression_AGL-2m_LatLon0.15_PT147H.grib2 2026-04-24 16:28 761K
20260424T12Z_MSC_GDPS_DewPointDepression_IsbL-0010_LatLon0.15_PT147H.grib2 2026-04-24 16:28 65K
20260424T12Z_MSC_GDPS_DewPointDepression_IsbL-0020_LatLon0.15_PT147H.grib2 2026-04-24 16:28 57K
20260424T12Z_MSC_GDPS_DewPointDepression_IsbL-0030_LatLon0.15_PT147H.grib2 2026-04-24 16:28 66K
20260424T12Z_MSC_GDPS_DewPointDepression_IsbL-0050_LatLon0.15_PT147H.grib2 2026-04-24 16:28 360K
20260424T12Z_MSC_GDPS_DewPointDepression_IsbL-0100_LatLon0.15_PT147H.grib2 2026-04-24 16:28 401K
20260424T12Z_MSC_GDPS_DewPointDepression_IsbL-0150_LatLon0.15_PT147H.grib2 2026-04-24 16:28 454K
20260424T12Z_MSC_GDPS_DewPointDepression_IsbL-0175_LatLon0.15_PT147H.grib2 2026-04-24 16:28 555K
20260424T12Z_MSC_GDPS_DewPointDepression_IsbL-0200_LatLon0.15_PT147H.grib2 2026-04-24 16:28 679K
20260424T12Z_MSC_GDPS_DewPointDepression_IsbL-0225_LatLon0.15_PT147H.grib2 2026-04-24 16:28 790K
20260424T12Z_MSC_GDPS_DewPointDepression_IsbL-0250_LatLon0.15_PT147H.grib2 2026-04-24 16:28 868K
20260424T12Z_MSC_GDPS_DewPointDepression_IsbL-0275_LatLon0.15_PT147H.grib2 2026-04-24 16:28 871K
20260424T12Z_MSC_GDPS_DewPointDepression_IsbL-0300_LatLon0.15_PT147H.grib2 2026-04-24 16:28 900K
20260424T12Z_MSC_GDPS_DewPointDepression_IsbL-0350_LatLon0.15_PT147H.grib2 2026-04-24 16:28 924K
20260424T12Z_MSC_GDPS_DewPointDepression_IsbL-0400_LatLon0.15_PT147H.grib2 2026-04-24 16:28 956K
20260424T12Z_MSC_GDPS_DewPointDepression_IsbL-0450_LatLon0.15_PT147H.grib2 2026-04-24 16:28 1.0M
20260424T12Z_MSC_GDPS_DewPointDepression_IsbL-0500_LatLon0.15_PT147H.grib2 2026-04-24 16:28 1.0M
20260424T12Z_MSC_GDPS_DewPointDepression_IsbL-0550_LatLon0.15_PT147H.grib2 2026-04-24 16:28 1.0M
20260424T12Z_MSC_GDPS_DewPointDepression_IsbL-0600_LatLon0.15_PT147H.grib2 2026-04-24 16:28 1.0M
20260424T12Z_MSC_GDPS_DewPointDepression_IsbL-0650_LatLon0.15_PT147H.grib2 2026-04-24 16:28 1.1M
20260424T12Z_MSC_GDPS_DewPointDepression_IsbL-0700_LatLon0.15_PT147H.grib2 2026-04-24 16:28 1.1M
20260424T12Z_MSC_GDPS_DewPointDepression_IsbL-0750_LatLon0.15_PT147H.grib2 2026-04-24 16:28 1.1M
20260424T12Z_MSC_GDPS_DewPointDepression_IsbL-0800_LatLon0.15_PT147H.grib2 2026-04-24 16:28 1.2M
20260424T12Z_MSC_GDPS_DewPointDepression_IsbL-0850_LatLon0.15_PT147H.grib2 2026-04-24 16:28 1.2M
20260424T12Z_MSC_GDPS_DewPointDepression_IsbL-0875_LatLon0.15_PT147H.grib2 2026-04-24 16:28 1.1M
20260424T12Z_MSC_GDPS_DewPointDepression_IsbL-0900_LatLon0.15_PT147H.grib2 2026-04-24 16:28 1.1M
20260424T12Z_MSC_GDPS_DewPointDepression_IsbL-0925_LatLon0.15_PT147H.grib2 2026-04-24 16:28 1.0M
20260424T12Z_MSC_GDPS_DewPointDepression_IsbL-0950_LatLon0.15_PT147H.grib2 2026-04-24 16:28 1.0M
20260424T12Z_MSC_GDPS_DewPointDepression_IsbL-0970_LatLon0.15_PT147H.grib2 2026-04-24 16:28 1.0M
20260424T12Z_MSC_GDPS_DewPointDepression_IsbL-0985_LatLon0.15_PT147H.grib2 2026-04-24 16:28 1.0M
20260424T12Z_MSC_GDPS_DewPointDepression_IsbL-1000_LatLon0.15_PT147H.grib2 2026-04-24 16:28 1.0M
20260424T12Z_MSC_GDPS_DewPointDepression_IsbL-1015_LatLon0.15_PT147H.grib2 2026-04-24 16:28 918K
20260424T12Z_MSC_GDPS_DewPoint_AGL-2m_LatLon0.15_PT147H.grib2 2026-04-24 16:28 613K
20260424T12Z_MSC_GDPS_DownwardLongwaveRadiationFlux-Accum_Sfc_LatLon0.15_PT147H.grib2 2026-04-24 16:28 843K
20260424T12Z_MSC_GDPS_DownwardShortwaveRadiationFlux-Accum_Sfc_LatLon0.15_PT147H.grib2 2026-04-24 16:28 1.0M
20260424T12Z_MSC_GDPS_FreezingRain-Accum3h_Sfc_LatLon0.15_PT147H.grib2 2026-04-24 16:28 69K
20260424T12Z_MSC_GDPS_FreezingRain-Accum_Sfc_LatLon0.15_PT147H.grib2 2026-04-24 16:28 496K
20260424T12Z_MSC_GDPS_GeopotentialHeight_IsbL-0001_LatLon0.15_PT147H.grib2 2026-04-24 16:28 379K
20260424T12Z_MSC_GDPS_GeopotentialHeight_IsbL-0005_LatLon0.15_PT147H.grib2 2026-04-24 16:28 485K
20260424T12Z_MSC_GDPS_GeopotentialHeight_IsbL-0010_LatLon0.15_PT147H.grib2 2026-04-24 16:28 473K
20260424T12Z_MSC_GDPS_GeopotentialHeight_IsbL-0020_LatLon0.15_PT147H.grib2 2026-04-24 16:28 415K
20260424T12Z_MSC_GDPS_GeopotentialHeight_IsbL-0030_LatLon0.15_PT147H.grib2 2026-04-24 16:28 415K
20260424T12Z_MSC_GDPS_GeopotentialHeight_IsbL-0050_LatLon0.15_PT147H.grib2 2026-04-24 16:28 571K
20260424T12Z_MSC_GDPS_GeopotentialHeight_IsbL-0100_LatLon0.15_PT147H.grib2 2026-04-24 16:28 609K
20260424T12Z_MSC_GDPS_GeopotentialHeight_IsbL-0150_LatLon0.15_PT147H.grib2 2026-04-24 16:28 474K
20260424T12Z_MSC_GDPS_GeopotentialHeight_IsbL-0175_LatLon0.15_PT147H.grib2 2026-04-24 16:28 478K
20260424T12Z_MSC_GDPS_GeopotentialHeight_IsbL-0200_LatLon0.15_PT147H.grib2 2026-04-24 16:28 482K
20260424T12Z_MSC_GDPS_GeopotentialHeight_IsbL-0225_LatLon0.15_PT147H.grib2 2026-04-24 16:28 485K
20260424T12Z_MSC_GDPS_GeopotentialHeight_IsbL-0250_LatLon0.15_PT147H.grib2 2026-04-24 16:28 646K
20260424T12Z_MSC_GDPS_GeopotentialHeight_IsbL-0275_LatLon0.15_PT147H.grib2 2026-04-24 16:28 646K
20260424T12Z_MSC_GDPS_GeopotentialHeight_IsbL-0300_LatLon0.15_PT147H.grib2 2026-04-24 16:28 645K
20260424T12Z_MSC_GDPS_GeopotentialHeight_IsbL-0350_LatLon0.15_PT147H.grib2 2026-04-24 16:28 635K
20260424T12Z_MSC_GDPS_GeopotentialHeight_IsbL-0400_LatLon0.15_PT147H.grib2 2026-04-24 16:28 627K
20260424T12Z_MSC_GDPS_GeopotentialHeight_IsbL-0450_LatLon0.15_PT147H.grib2 2026-04-24 16:28 617K
20260424T12Z_MSC_GDPS_GeopotentialHeight_IsbL-0500_LatLon0.15_PT147H.grib2 2026-04-24 16:28 606K
20260424T12Z_MSC_GDPS_GeopotentialHeight_IsbL-0550_LatLon0.15_PT147H.grib2 2026-04-24 16:28 528K
20260424T12Z_MSC_GDPS_GeopotentialHeight_IsbL-0600_LatLon0.15_PT147H.grib2 2026-04-24 16:28 525K
20260424T12Z_MSC_GDPS_GeopotentialHeight_IsbL-0650_LatLon0.15_PT147H.grib2 2026-04-24 16:28 692K
20260424T12Z_MSC_GDPS_GeopotentialHeight_IsbL-0700_LatLon0.15_PT147H.grib2 2026-04-24 16:28 693K
20260424T12Z_MSC_GDPS_GeopotentialHeight_IsbL-0750_LatLon0.15_PT147H.grib2 2026-04-24 16:28 692K
20260424T12Z_MSC_GDPS_GeopotentialHeight_IsbL-0800_LatLon0.15_PT147H.grib2 2026-04-24 16:28 706K
20260424T12Z_MSC_GDPS_GeopotentialHeight_IsbL-0850_LatLon0.15_PT147H.grib2 2026-04-24 16:28 712K
20260424T12Z_MSC_GDPS_GeopotentialHeight_IsbL-0875_LatLon0.15_PT147H.grib2 2026-04-24 16:28 717K
20260424T12Z_MSC_GDPS_GeopotentialHeight_IsbL-0900_LatLon0.15_PT147H.grib2 2026-04-24 16:28 728K
20260424T12Z_MSC_GDPS_GeopotentialHeight_IsbL-0925_LatLon0.15_PT147H.grib2 2026-04-24 16:28 733K
20260424T12Z_MSC_GDPS_GeopotentialHeight_IsbL-0950_LatLon0.15_PT147H.grib2 2026-04-24 16:28 740K
20260424T12Z_MSC_GDPS_GeopotentialHeight_IsbL-0970_LatLon0.15_PT147H.grib2 2026-04-24 16:28 753K
20260424T12Z_MSC_GDPS_GeopotentialHeight_IsbL-0985_LatLon0.15_PT147H.grib2 2026-04-24 16:28 769K
20260424T12Z_MSC_GDPS_GeopotentialHeight_IsbL-1000_LatLon0.15_PT147H.grib2 2026-04-24 16:28 792K
20260424T12Z_MSC_GDPS_GeopotentialHeight_IsbL-1015_LatLon0.15_PT147H.grib2 2026-04-24 16:28 816K
20260424T12Z_MSC_GDPS_IcePellets-Accum3h_Sfc_LatLon0.15_PT147H.grib2 2026-04-24 16:28 7.2K
20260424T12Z_MSC_GDPS_IcePellets-Accum_Sfc_LatLon0.15_PT147H.grib2 2026-04-24 16:28 167K
20260424T12Z_MSC_GDPS_KIndex_Sfc_LatLon0.15_PT147H.grib2 2026-04-24 16:28 6.5M
20260424T12Z_MSC_GDPS_LatentHeatNetFlux_Sfc_LatLon0.15_PT147H.grib2 2026-04-24 16:28 538K
20260424T12Z_MSC_GDPS_LiftedIndex-MU-VT_IsbL-0500_LatLon0.15_PT147H.grib2 2026-04-24 16:28 5.4M
20260424T12Z_MSC_GDPS_NetLongwaveRadiationFlux-Accum_Sfc_LatLon0.15_PT147H.grib2 2026-04-24 16:28 1.1M
20260424T12Z_MSC_GDPS_NetShortwaveRadiationFlux-Accum_Sfc_LatLon0.15_PT147H.grib2 2026-04-24 16:28 1.0M
20260424T12Z_MSC_GDPS_O3MixingRatio_LatLon0.15_PT147H.grib2 2026-04-24 16:51 1.9M
20260424T12Z_MSC_GDPS_O3_EAtm_LatLon0.15_PT147H.grib2 2026-04-24 16:51 2.4M
20260424T12Z_MSC_GDPS_PlanetaryBoundaryLayerHeight_Sfc_LatLon0.15_PT147H.grib2 2026-04-24 16:28 2.5M
20260424T12Z_MSC_GDPS_Precip-Accum3h_Sfc_LatLon0.15_PT147H.grib2 2026-04-24 16:28 3.5M
20260424T12Z_MSC_GDPS_Precip-Accum_Sfc_LatLon0.15_PT147H.grib2 2026-04-24 16:28 5.2M
20260424T12Z_MSC_GDPS_PrecipRate_Sfc_LatLon0.15_PT147H.grib2 2026-04-24 16:28 2.9M
20260424T12Z_MSC_GDPS_PrecipType-Instant_Sfc_LatLon0.15_PT147H.grib2 2026-04-24 16:28 1.6M
20260424T12Z_MSC_GDPS_Pressure_MSL_LatLon0.15_PT147H.grib2 2026-04-24 16:28 729K
20260424T12Z_MSC_GDPS_Pressure_Sfc_LatLon0.15_PT147H.grib2 2026-04-24 16:28 1.1M
20260424T12Z_MSC_GDPS_RadiativeTemp_Sfc_LatLon0.15_PT147H.grib2 2026-04-24 16:28 493K
20260424T12Z_MSC_GDPS_Rain-Accum3h_Sfc_LatLon0.15_PT147H.grib2 2026-04-24 16:28 1.8M
20260424T12Z_MSC_GDPS_Rain-Accum_Sfc_LatLon0.15_PT147H.grib2 2026-04-24 16:28 4.1M
20260424T12Z_MSC_GDPS_RelativeHumidity_AGL-2m_LatLon0.15_PT147H.grib2 2026-04-24 16:28 1.1M
20260424T12Z_MSC_GDPS_RelativeHumidity_IsbL-0010_LatLon0.15_PT147H.grib2 2026-04-24 16:28 251K
20260424T12Z_MSC_GDPS_RelativeHumidity_IsbL-0020_LatLon0.15_PT147H.grib2 2026-04-24 16:28 219K
20260424T12Z_MSC_GDPS_RelativeHumidity_IsbL-0030_LatLon0.15_PT147H.grib2 2026-04-24 16:28 255K
20260424T12Z_MSC_GDPS_RelativeHumidity_IsbL-0050_LatLon0.15_PT147H.grib2 2026-04-24 16:28 410K
20260424T12Z_MSC_GDPS_RelativeHumidity_IsbL-0100_LatLon0.15_PT147H.grib2 2026-04-24 16:28 493K
20260424T12Z_MSC_GDPS_RelativeHumidity_IsbL-0150_LatLon0.15_PT147H.grib2 2026-04-24 16:28 649K
20260424T12Z_MSC_GDPS_RelativeHumidity_IsbL-0175_LatLon0.15_PT147H.grib2 2026-04-24 16:28 776K
20260424T12Z_MSC_GDPS_RelativeHumidity_IsbL-0200_LatLon0.15_PT147H.grib2 2026-04-24 16:28 701K
20260424T12Z_MSC_GDPS_RelativeHumidity_IsbL-0225_LatLon0.15_PT147H.grib2 2026-04-24 16:28 792K
20260424T12Z_MSC_GDPS_RelativeHumidity_IsbL-0250_LatLon0.15_PT147H.grib2 2026-04-24 16:28 870K
20260424T12Z_MSC_GDPS_RelativeHumidity_IsbL-0275_LatLon0.15_PT147H.grib2 2026-04-24 16:28 888K
20260424T12Z_MSC_GDPS_RelativeHumidity_IsbL-0300_LatLon0.15_PT147H.grib2 2026-04-24 16:28 923K
20260424T12Z_MSC_GDPS_RelativeHumidity_IsbL-0350_LatLon0.15_PT147H.grib2 2026-04-24 16:28 940K
20260424T12Z_MSC_GDPS_RelativeHumidity_IsbL-0400_LatLon0.15_PT147H.grib2 2026-04-24 16:28 961K
20260424T12Z_MSC_GDPS_RelativeHumidity_IsbL-0450_LatLon0.15_PT147H.grib2 2026-04-24 16:28 1.0M
20260424T12Z_MSC_GDPS_RelativeHumidity_IsbL-0500_LatLon0.15_PT147H.grib2 2026-04-24 16:28 1.0M
20260424T12Z_MSC_GDPS_RelativeHumidity_IsbL-0550_LatLon0.15_PT147H.grib2 2026-04-24 16:28 1.0M
20260424T12Z_MSC_GDPS_RelativeHumidity_IsbL-0600_LatLon0.15_PT147H.grib2 2026-04-24 16:28 1.0M
20260424T12Z_MSC_GDPS_RelativeHumidity_IsbL-0650_LatLon0.15_PT147H.grib2 2026-04-24 16:28 1.1M
20260424T12Z_MSC_GDPS_RelativeHumidity_IsbL-0700_LatLon0.15_PT147H.grib2 2026-04-24 16:28 1.1M
20260424T12Z_MSC_GDPS_RelativeHumidity_IsbL-0750_LatLon0.15_PT147H.grib2 2026-04-24 16:28 1.1M
20260424T12Z_MSC_GDPS_RelativeHumidity_IsbL-0800_LatLon0.15_PT147H.grib2 2026-04-24 16:28 1.2M
20260424T12Z_MSC_GDPS_RelativeHumidity_IsbL-0850_LatLon0.15_PT147H.grib2 2026-04-24 16:28 1.3M
20260424T12Z_MSC_GDPS_RelativeHumidity_IsbL-0875_LatLon0.15_PT147H.grib2 2026-04-24 16:28 1.3M
20260424T12Z_MSC_GDPS_RelativeHumidity_IsbL-0900_LatLon0.15_PT147H.grib2 2026-04-24 16:28 1.2M
20260424T12Z_MSC_GDPS_RelativeHumidity_IsbL-0925_LatLon0.15_PT147H.grib2 2026-04-24 16:28 1.2M
20260424T12Z_MSC_GDPS_RelativeHumidity_IsbL-0950_LatLon0.15_PT147H.grib2 2026-04-24 16:28 1.2M
20260424T12Z_MSC_GDPS_RelativeHumidity_IsbL-0970_LatLon0.15_PT147H.grib2 2026-04-24 16:28 1.2M
20260424T12Z_MSC_GDPS_RelativeHumidity_IsbL-0985_LatLon0.15_PT147H.grib2 2026-04-24 16:28 1.2M
20260424T12Z_MSC_GDPS_RelativeHumidity_IsbL-1000_LatLon0.15_PT147H.grib2 2026-04-24 16:28 1.1M
20260424T12Z_MSC_GDPS_RelativeHumidity_IsbL-1015_LatLon0.15_PT147H.grib2 2026-04-24 16:28 1.1M
20260424T12Z_MSC_GDPS_Runoff-Accum_Sfc_LatLon0.15_PT147H.grib2 2026-04-24 16:28 110K
20260424T12Z_MSC_GDPS_SensibleHeatNetFlux_Sfc_LatLon0.15_PT147H.grib2 2026-04-24 16:28 478K
20260424T12Z_MSC_GDPS_ShowalterIndex_IsbL-0500_LatLon0.15_PT147H.grib2 2026-04-24 16:28 6.2M
20260424T12Z_MSC_GDPS_Snow-Accum3h_Sfc_LatLon0.15_PT147H.grib2 2026-04-24 16:28 1.1M
20260424T12Z_MSC_GDPS_Snow-Accum_Sfc_LatLon0.15_PT147H.grib2 2026-04-24 16:28 2.2M
20260424T12Z_MSC_GDPS_SnowDepth_Sfc_LatLon0.15_PT147H.grib2 2026-04-24 16:28 1.8M
20260424T12Z_MSC_GDPS_SoilTemp_DBS-0to10cm_LatLon0.15_PT147H.grib2 2026-04-24 16:28 511K
20260424T12Z_MSC_GDPS_SoilTemp_Sfc_LatLon0.15_PT147H.grib2 2026-04-24 16:28 577K
20260424T12Z_MSC_GDPS_SoilVolumetricWaterContent_DBS-0to10cm_LatLon0.15_PT147H.grib2 2026-04-24 16:28 583K
20260424T12Z_MSC_GDPS_SoilVolumetricWaterContent_DBS-0to1cm_LatLon0.15_PT147H.grib2 2026-04-24 16:28 648K
20260424T12Z_MSC_GDPS_SpecificHumidity_AGL-120m_LatLon0.15_PT147H.grib2 2026-04-24 16:28 1.1M
20260424T12Z_MSC_GDPS_SpecificHumidity_AGL-2m_LatLon0.15_PT147H.grib2 2026-04-24 16:28 1.2M
20260424T12Z_MSC_GDPS_SpecificHumidity_AGL-40m_LatLon0.15_PT147H.grib2 2026-04-24 16:28 1.1M
20260424T12Z_MSC_GDPS_SpecificHumidity_AGL-80m_LatLon0.15_PT147H.grib2 2026-04-24 16:28 1.1M
20260424T12Z_MSC_GDPS_SpecificHumidity_IsbL-0001_LatLon0.15_PT147H.grib2 2026-04-24 16:28 1.1M
20260424T12Z_MSC_GDPS_SpecificHumidity_IsbL-0005_LatLon0.15_PT147H.grib2 2026-04-24 16:28 1.4M
20260424T12Z_MSC_GDPS_SpecificHumidity_IsbL-0010_LatLon0.15_PT147H.grib2 2026-04-24 16:28 1.2M
20260424T12Z_MSC_GDPS_SpecificHumidity_IsbL-0020_LatLon0.15_PT147H.grib2 2026-04-24 16:28 1.3M
20260424T12Z_MSC_GDPS_SpecificHumidity_IsbL-0030_LatLon0.15_PT147H.grib2 2026-04-24 16:28 1.5M
20260424T12Z_MSC_GDPS_SpecificHumidity_IsbL-0050_LatLon0.15_PT147H.grib2 2026-04-24 16:28 1.3M
20260424T12Z_MSC_GDPS_SpecificHumidity_IsbL-0100_LatLon0.15_PT147H.grib2 2026-04-24 16:28 1.3M
20260424T12Z_MSC_GDPS_SpecificHumidity_IsbL-0150_LatLon0.15_PT147H.grib2 2026-04-24 16:28 1.2M
20260424T12Z_MSC_GDPS_SpecificHumidity_IsbL-0175_LatLon0.15_PT147H.grib2 2026-04-24 16:28 1.2M
20260424T12Z_MSC_GDPS_SpecificHumidity_IsbL-0200_LatLon0.15_PT147H.grib2 2026-04-24 16:28 1.3M
20260424T12Z_MSC_GDPS_SpecificHumidity_IsbL-0225_LatLon0.15_PT147H.grib2 2026-04-24 16:28 1.3M
20260424T12Z_MSC_GDPS_SpecificHumidity_IsbL-0250_LatLon0.15_PT147H.grib2 2026-04-24 16:28 1.4M
20260424T12Z_MSC_GDPS_SpecificHumidity_IsbL-0275_LatLon0.15_PT147H.grib2 2026-04-24 16:28 1.3M
20260424T12Z_MSC_GDPS_SpecificHumidity_IsbL-0300_LatLon0.15_PT147H.grib2 2026-04-24 16:28 1.2M
20260424T12Z_MSC_GDPS_SpecificHumidity_IsbL-0350_LatLon0.15_PT147H.grib2 2026-04-24 16:28 1.2M
20260424T12Z_MSC_GDPS_SpecificHumidity_IsbL-0400_LatLon0.15_PT147H.grib2 2026-04-24 16:28 1.4M
20260424T12Z_MSC_GDPS_SpecificHumidity_IsbL-0450_LatLon0.15_PT147H.grib2 2026-04-24 16:28 1.3M
20260424T12Z_MSC_GDPS_SpecificHumidity_IsbL-0500_LatLon0.15_PT147H.grib2 2026-04-24 16:28 1.4M
20260424T12Z_MSC_GDPS_SpecificHumidity_IsbL-0550_LatLon0.15_PT147H.grib2 2026-04-24 16:28 1.6M
20260424T12Z_MSC_GDPS_SpecificHumidity_IsbL-0600_LatLon0.15_PT147H.grib2 2026-04-24 16:28 1.7M
20260424T12Z_MSC_GDPS_SpecificHumidity_IsbL-0650_LatLon0.15_PT147H.grib2 2026-04-24 16:28 1.5M
20260424T12Z_MSC_GDPS_SpecificHumidity_IsbL-0700_LatLon0.15_PT147H.grib2 2026-04-24 16:28 1.6M
20260424T12Z_MSC_GDPS_SpecificHumidity_IsbL-0750_LatLon0.15_PT147H.grib2 2026-04-24 16:28 1.7M
20260424T12Z_MSC_GDPS_SpecificHumidity_IsbL-0800_LatLon0.15_PT147H.grib2 2026-04-24 16:28 1.9M
20260424T12Z_MSC_GDPS_SpecificHumidity_IsbL-0850_LatLon0.15_PT147H.grib2 2026-04-24 16:28 1.9M
20260424T12Z_MSC_GDPS_SpecificHumidity_IsbL-0875_LatLon0.15_PT147H.grib2 2026-04-24 16:28 1.9M
20260424T12Z_MSC_GDPS_SpecificHumidity_IsbL-0900_LatLon0.15_PT147H.grib2 2026-04-24 16:28 1.9M
20260424T12Z_MSC_GDPS_SpecificHumidity_IsbL-0925_LatLon0.15_PT147H.grib2 2026-04-24 16:28 1.6M
20260424T12Z_MSC_GDPS_SpecificHumidity_IsbL-0950_LatLon0.15_PT147H.grib2 2026-04-24 16:28 1.6M
20260424T12Z_MSC_GDPS_SpecificHumidity_IsbL-0970_LatLon0.15_PT147H.grib2 2026-04-24 16:28 1.5M
20260424T12Z_MSC_GDPS_SpecificHumidity_IsbL-0985_LatLon0.15_PT147H.grib2 2026-04-24 16:28 1.5M
20260424T12Z_MSC_GDPS_SpecificHumidity_IsbL-1000_LatLon0.15_PT147H.grib2 2026-04-24 16:28 1.5M
20260424T12Z_MSC_GDPS_SpecificHumidity_IsbL-1015_LatLon0.15_PT147H.grib2 2026-04-24 16:28 1.4M
20260424T12Z_MSC_GDPS_SpecificHumidity_Sfc_LatLon0.15_PT147H.grib2 2026-04-24 16:28 670K
20260424T12Z_MSC_GDPS_Thickness_IsbL-0850to0700_LatLon0.15_PT147H.grib2 2026-04-24 16:28 468K
20260424T12Z_MSC_GDPS_Thickness_IsbL-1000to0500_LatLon0.15_PT147H.grib2 2026-04-24 16:28 374K
20260424T12Z_MSC_GDPS_Thickness_IsbL-1000to0850_LatLon0.15_PT147H.grib2 2026-04-24 16:28 490K
20260424T12Z_MSC_GDPS_TotalCloudCover_Sfc_LatLon0.15_PT147H.grib2 2026-04-24 16:28 839K
20260424T12Z_MSC_GDPS_TotalTotalsIndex_Sfc_LatLon0.15_PT147H.grib2 2026-04-24 16:28 6.2M
20260424T12Z_MSC_GDPS_UVIndex-ClearSky_Sfc_LatLon0.15_PT147H.grib2 2026-04-24 16:51 1.0M
20260424T12Z_MSC_GDPS_UVIndex_Sfc_LatLon0.15_PT147H.grib2 2026-04-24 16:51 1.5M
20260424T12Z_MSC_GDPS_UpwardLongwaveRadiationFlux_NTAtm_LatLon0.15_PT147H.grib2 2026-04-24 16:28 847K
20260424T12Z_MSC_GDPS_VerticalVelocity_IsbL-0500_LatLon0.15_PT147H.grib2 2026-04-24 16:28 1.0M
20260424T12Z_MSC_GDPS_VerticalVelocity_IsbL-0700_LatLon0.15_PT147H.grib2 2026-04-24 16:28 1.1M
20260424T12Z_MSC_GDPS_VerticalVelocity_IsbL-0850_LatLon0.15_PT147H.grib2 2026-04-24 16:28 1.6M
20260424T12Z_MSC_GDPS_WindChill_Sfc_LatLon0.15_PT147H.grib2 2026-04-24 16:28 5.3M
20260424T12Z_MSC_GDPS_WindDir_AGL-10m_LatLon0.15_PT147H.grib2 2026-04-24 16:28 1.3M
20260424T12Z_MSC_GDPS_WindDir_AGL-120m_LatLon0.15_PT147H.grib2 2026-04-24 16:28 1.4M
20260424T12Z_MSC_GDPS_WindDir_AGL-40m_LatLon0.15_PT147H.grib2 2026-04-24 16:28 1.4M
20260424T12Z_MSC_GDPS_WindDir_AGL-80m_LatLon0.15_PT147H.grib2 2026-04-24 16:28 1.4M
20260424T12Z_MSC_GDPS_WindDir_IsbL-0001_LatLon0.15_PT147H.grib2 2026-04-24 16:28 663K
20260424T12Z_MSC_GDPS_WindDir_IsbL-0005_LatLon0.15_PT147H.grib2 2026-04-24 16:28 794K
20260424T12Z_MSC_GDPS_WindDir_IsbL-0010_LatLon0.15_PT147H.grib2 2026-04-24 16:28 830K
20260424T12Z_MSC_GDPS_WindDir_IsbL-0020_LatLon0.15_PT147H.grib2 2026-04-24 16:28 920K
20260424T12Z_MSC_GDPS_WindDir_IsbL-0030_LatLon0.15_PT147H.grib2 2026-04-24 16:28 906K
20260424T12Z_MSC_GDPS_WindDir_IsbL-0050_LatLon0.15_PT147H.grib2 2026-04-24 16:28 948K
20260424T12Z_MSC_GDPS_WindDir_IsbL-0100_LatLon0.15_PT147H.grib2 2026-04-24 16:28 1.0M
20260424T12Z_MSC_GDPS_WindDir_IsbL-0150_LatLon0.15_PT147H.grib2 2026-04-24 16:28 1.0M
20260424T12Z_MSC_GDPS_WindDir_IsbL-0175_LatLon0.15_PT147H.grib2 2026-04-24 16:28 1.0M
20260424T12Z_MSC_GDPS_WindDir_IsbL-0200_LatLon0.15_PT147H.grib2 2026-04-24 16:28 1.1M
20260424T12Z_MSC_GDPS_WindDir_IsbL-0225_LatLon0.15_PT147H.grib2 2026-04-24 16:28 1.1M
20260424T12Z_MSC_GDPS_WindDir_IsbL-0250_LatLon0.15_PT147H.grib2 2026-04-24 16:28 1.1M
20260424T12Z_MSC_GDPS_WindDir_IsbL-0275_LatLon0.15_PT147H.grib2 2026-04-24 16:28 1.2M
20260424T12Z_MSC_GDPS_WindDir_IsbL-0300_LatLon0.15_PT147H.grib2 2026-04-24 16:28 1.2M
20260424T12Z_MSC_GDPS_WindDir_IsbL-0350_LatLon0.15_PT147H.grib2 2026-04-24 16:28 1.2M
20260424T12Z_MSC_GDPS_WindDir_IsbL-0400_LatLon0.15_PT147H.grib2 2026-04-24 16:28 1.2M
20260424T12Z_MSC_GDPS_WindDir_IsbL-0450_LatLon0.15_PT147H.grib2 2026-04-24 16:28 1.3M
20260424T12Z_MSC_GDPS_WindDir_IsbL-0500_LatLon0.15_PT147H.grib2 2026-04-24 16:28 1.3M
20260424T12Z_MSC_GDPS_WindDir_IsbL-0550_LatLon0.15_PT147H.grib2 2026-04-24 16:28 1.4M
20260424T12Z_MSC_GDPS_WindDir_IsbL-0600_LatLon0.15_PT147H.grib2 2026-04-24 16:28 1.4M
20260424T12Z_MSC_GDPS_WindDir_IsbL-0650_LatLon0.15_PT147H.grib2 2026-04-24 16:28 1.5M
20260424T12Z_MSC_GDPS_WindDir_IsbL-0700_LatLon0.15_PT147H.grib2 2026-04-24 16:28 1.6M
20260424T12Z_MSC_GDPS_WindDir_IsbL-0750_LatLon0.15_PT147H.grib2 2026-04-24 16:28 1.7M
20260424T12Z_MSC_GDPS_WindDir_IsbL-0800_LatLon0.15_PT147H.grib2 2026-04-24 16:28 1.8M
20260424T12Z_MSC_GDPS_WindDir_IsbL-0850_LatLon0.15_PT147H.grib2 2026-04-24 16:28 1.9M
20260424T12Z_MSC_GDPS_WindDir_IsbL-0875_LatLon0.15_PT147H.grib2 2026-04-24 16:28 2.0M
20260424T12Z_MSC_GDPS_WindDir_IsbL-0900_LatLon0.15_PT147H.grib2 2026-04-24 16:28 2.0M
20260424T12Z_MSC_GDPS_WindDir_IsbL-0925_LatLon0.15_PT147H.grib2 2026-04-24 16:28 2.0M
20260424T12Z_MSC_GDPS_WindDir_IsbL-0950_LatLon0.15_PT147H.grib2 2026-04-24 16:28 2.0M
20260424T12Z_MSC_GDPS_WindDir_IsbL-0970_LatLon0.15_PT147H.grib2 2026-04-24 16:28 2.0M
20260424T12Z_MSC_GDPS_WindDir_IsbL-0985_LatLon0.15_PT147H.grib2 2026-04-24 16:28 2.0M
20260424T12Z_MSC_GDPS_WindDir_IsbL-1000_LatLon0.15_PT147H.grib2 2026-04-24 16:28 2.1M
20260424T12Z_MSC_GDPS_WindDir_IsbL-1015_LatLon0.15_PT147H.grib2 2026-04-24 16:28 2.0M
20260424T12Z_MSC_GDPS_WindGust-Max_AGL-10m_LatLon0.15_PT147H.grib2 2026-04-24 16:28 2.3M
20260424T12Z_MSC_GDPS_WindGust-Min_AGL-10m_LatLon0.15_PT147H.grib2 2026-04-24 16:28 2.2M
20260424T12Z_MSC_GDPS_WindGust_AGL-10m_LatLon0.15_PT147H.grib2 2026-04-24 16:28 2.2M
20260424T12Z_MSC_GDPS_WindSpeed_AGL-10m_LatLon0.15_PT147H.grib2 2026-04-24 16:28 1.1M
20260424T12Z_MSC_GDPS_WindSpeed_AGL-120m_LatLon0.15_PT147H.grib2 2026-04-24 16:28 1.2M
20260424T12Z_MSC_GDPS_WindSpeed_AGL-40m_LatLon0.15_PT147H.grib2 2026-04-24 16:28 1.2M
20260424T12Z_MSC_GDPS_WindSpeed_AGL-80m_LatLon0.15_PT147H.grib2 2026-04-24 16:28 1.2M
20260424T12Z_MSC_GDPS_WindSpeed_IsbL-0001_LatLon0.15_PT147H.grib2 2026-04-24 16:28 641K
20260424T12Z_MSC_GDPS_WindSpeed_IsbL-0005_LatLon0.15_PT147H.grib2 2026-04-24 16:28 604K
20260424T12Z_MSC_GDPS_WindSpeed_IsbL-0010_LatLon0.15_PT147H.grib2 2026-04-24 16:28 619K
20260424T12Z_MSC_GDPS_WindSpeed_IsbL-0020_LatLon0.15_PT147H.grib2 2026-04-24 16:28 844K
20260424T12Z_MSC_GDPS_WindSpeed_IsbL-0030_LatLon0.15_PT147H.grib2 2026-04-24 16:28 848K
20260424T12Z_MSC_GDPS_WindSpeed_IsbL-0050_LatLon0.15_PT147H.grib2 2026-04-24 16:28 895K
20260424T12Z_MSC_GDPS_WindSpeed_IsbL-0100_LatLon0.15_PT147H.grib2 2026-04-24 16:28 1.1M
20260424T12Z_MSC_GDPS_WindSpeed_IsbL-0150_LatLon0.15_PT147H.grib2 2026-04-24 16:28 1.0M
20260424T12Z_MSC_GDPS_WindSpeed_IsbL-0175_LatLon0.15_PT147H.grib2 2026-04-24 16:28 1.0M
20260424T12Z_MSC_GDPS_WindSpeed_IsbL-0200_LatLon0.15_PT147H.grib2 2026-04-24 16:28 1.1M
20260424T12Z_MSC_GDPS_WindSpeed_IsbL-0225_LatLon0.15_PT147H.grib2 2026-04-24 16:28 1.1M
20260424T12Z_MSC_GDPS_WindSpeed_IsbL-0250_LatLon0.15_PT147H.grib2 2026-04-24 16:28 1.1M
20260424T12Z_MSC_GDPS_WindSpeed_IsbL-0275_LatLon0.15_PT147H.grib2 2026-04-24 16:28 1.1M
20260424T12Z_MSC_GDPS_WindSpeed_IsbL-0300_LatLon0.15_PT147H.grib2 2026-04-24 16:28 1.1M
20260424T12Z_MSC_GDPS_WindSpeed_IsbL-0350_LatLon0.15_PT147H.grib2 2026-04-24 16:28 1.1M
20260424T12Z_MSC_GDPS_WindSpeed_IsbL-0400_LatLon0.15_PT147H.grib2 2026-04-24 16:28 1.1M
20260424T12Z_MSC_GDPS_WindSpeed_IsbL-0450_LatLon0.15_PT147H.grib2 2026-04-24 16:28 1.1M
20260424T12Z_MSC_GDPS_WindSpeed_IsbL-0500_LatLon0.15_PT147H.grib2 2026-04-24 16:28 1.1M
20260424T12Z_MSC_GDPS_WindSpeed_IsbL-0550_LatLon0.15_PT147H.grib2 2026-04-24 16:28 1.1M
20260424T12Z_MSC_GDPS_WindSpeed_IsbL-0600_LatLon0.15_PT147H.grib2 2026-04-24 16:28 1.1M
20260424T12Z_MSC_GDPS_WindSpeed_IsbL-0650_LatLon0.15_PT147H.grib2 2026-04-24 16:28 1.4M
20260424T12Z_MSC_GDPS_WindSpeed_IsbL-0700_LatLon0.15_PT147H.grib2 2026-04-24 16:28 1.5M
20260424T12Z_MSC_GDPS_WindSpeed_IsbL-0750_LatLon0.15_PT147H.grib2 2026-04-24 16:28 1.6M
20260424T12Z_MSC_GDPS_WindSpeed_IsbL-0800_LatLon0.15_PT147H.grib2 2026-04-24 16:28 1.8M
20260424T12Z_MSC_GDPS_WindSpeed_IsbL-0850_LatLon0.15_PT147H.grib2 2026-04-24 16:28 1.9M
20260424T12Z_MSC_GDPS_WindSpeed_IsbL-0875_LatLon0.15_PT147H.grib2 2026-04-24 16:28 1.9M
20260424T12Z_MSC_GDPS_WindSpeed_IsbL-0900_LatLon0.15_PT147H.grib2 2026-04-24 16:28 1.9M
20260424T12Z_MSC_GDPS_WindSpeed_IsbL-0925_LatLon0.15_PT147H.grib2 2026-04-24 16:28 1.9M
20260424T12Z_MSC_GDPS_WindSpeed_IsbL-0950_LatLon0.15_PT147H.grib2 2026-04-24 16:28 1.9M
20260424T12Z_MSC_GDPS_WindSpeed_IsbL-0970_LatLon0.15_PT147H.grib2 2026-04-24 16:28 1.9M
20260424T12Z_MSC_GDPS_WindSpeed_IsbL-0985_LatLon0.15_PT147H.grib2 2026-04-24 16:28 1.9M
20260424T12Z_MSC_GDPS_WindSpeed_IsbL-1000_LatLon0.15_PT147H.grib2 2026-04-24 16:28 1.9M
20260424T12Z_MSC_GDPS_WindSpeed_IsbL-1015_LatLon0.15_PT147H.grib2 2026-04-24 16:28 1.8M
20260424T12Z_MSC_GDPS_WindU_AGL-10m_LatLon0.15_PT147H.grib2 2026-04-24 16:28 1.3M
20260424T12Z_MSC_GDPS_WindU_AGL-120m_LatLon0.15_PT147H.grib2 2026-04-24 16:28 1.0M
20260424T12Z_MSC_GDPS_WindU_AGL-40m_LatLon0.15_PT147H.grib2 2026-04-24 16:28 1.0M
20260424T12Z_MSC_GDPS_WindU_AGL-80m_LatLon0.15_PT147H.grib2 2026-04-24 16:28 1.0M
20260424T12Z_MSC_GDPS_WindU_IsbL-0001_LatLon0.15_PT147H.grib2 2026-04-24 16:28 645K
20260424T12Z_MSC_GDPS_WindU_IsbL-0005_LatLon0.15_PT147H.grib2 2026-04-24 16:28 685K
20260424T12Z_MSC_GDPS_WindU_IsbL-0010_LatLon0.15_PT147H.grib2 2026-04-24 16:28 696K
20260424T12Z_MSC_GDPS_WindU_IsbL-0020_LatLon0.15_PT147H.grib2 2026-04-24 16:28 726K
20260424T12Z_MSC_GDPS_WindU_IsbL-0030_LatLon0.15_PT147H.grib2 2026-04-24 16:28 729K
20260424T12Z_MSC_GDPS_WindU_IsbL-0050_LatLon0.15_PT147H.grib2 2026-04-24 16:28 687K
20260424T12Z_MSC_GDPS_WindU_IsbL-0100_LatLon0.15_PT147H.grib2 2026-04-24 16:28 916K
20260424T12Z_MSC_GDPS_WindU_IsbL-0150_LatLon0.15_PT147H.grib2 2026-04-24 16:28 1.0M
20260424T12Z_MSC_GDPS_WindU_IsbL-0175_LatLon0.15_PT147H.grib2 2026-04-24 16:28 818K
20260424T12Z_MSC_GDPS_WindU_IsbL-0200_LatLon0.15_PT147H.grib2 2026-04-24 16:28 848K
20260424T12Z_MSC_GDPS_WindU_IsbL-0225_LatLon0.15_PT147H.grib2 2026-04-24 16:28 857K
20260424T12Z_MSC_GDPS_WindU_IsbL-0250_LatLon0.15_PT147H.grib2 2026-04-24 16:28 857K
20260424T12Z_MSC_GDPS_WindU_IsbL-0275_LatLon0.15_PT147H.grib2 2026-04-24 16:28 881K
20260424T12Z_MSC_GDPS_WindU_IsbL-0300_LatLon0.15_PT147H.grib2 2026-04-24 16:28 871K
20260424T12Z_MSC_GDPS_WindU_IsbL-0350_LatLon0.15_PT147H.grib2 2026-04-24 16:28 883K
20260424T12Z_MSC_GDPS_WindU_IsbL-0400_LatLon0.15_PT147H.grib2 2026-04-24 16:28 884K
20260424T12Z_MSC_GDPS_WindU_IsbL-0450_LatLon0.15_PT147H.grib2 2026-04-24 16:28 886K
20260424T12Z_MSC_GDPS_WindU_IsbL-0500_LatLon0.15_PT147H.grib2 2026-04-24 16:28 1.1M
20260424T12Z_MSC_GDPS_WindU_IsbL-0550_LatLon0.15_PT147H.grib2 2026-04-24 16:28 1.1M
20260424T12Z_MSC_GDPS_WindU_IsbL-0600_LatLon0.15_PT147H.grib2 2026-04-24 16:28 1.1M
20260424T12Z_MSC_GDPS_WindU_IsbL-0650_LatLon0.15_PT147H.grib2 2026-04-24 16:28 1.2M
20260424T12Z_MSC_GDPS_WindU_IsbL-0700_LatLon0.15_PT147H.grib2 2026-04-24 16:28 1.2M
20260424T12Z_MSC_GDPS_WindU_IsbL-0750_LatLon0.15_PT147H.grib2 2026-04-24 16:28 1.3M
20260424T12Z_MSC_GDPS_WindU_IsbL-0800_LatLon0.15_PT147H.grib2 2026-04-24 16:28 1.4M
20260424T12Z_MSC_GDPS_WindU_IsbL-0850_LatLon0.15_PT147H.grib2 2026-04-24 16:28 1.4M
20260424T12Z_MSC_GDPS_WindU_IsbL-0875_LatLon0.15_PT147H.grib2 2026-04-24 16:28 1.5M
20260424T12Z_MSC_GDPS_WindU_IsbL-0900_LatLon0.15_PT147H.grib2 2026-04-24 16:28 1.5M
20260424T12Z_MSC_GDPS_WindU_IsbL-0925_LatLon0.15_PT147H.grib2 2026-04-24 16:28 1.5M
20260424T12Z_MSC_GDPS_WindU_IsbL-0950_LatLon0.15_PT147H.grib2 2026-04-24 16:28 1.4M
20260424T12Z_MSC_GDPS_WindU_IsbL-0970_LatLon0.15_PT147H.grib2 2026-04-24 16:28 1.4M
20260424T12Z_MSC_GDPS_WindU_IsbL-0985_LatLon0.15_PT147H.grib2 2026-04-24 16:28 1.4M
20260424T12Z_MSC_GDPS_WindU_IsbL-1000_LatLon0.15_PT147H.grib2 2026-04-24 16:28 1.4M
20260424T12Z_MSC_GDPS_WindU_IsbL-1015_LatLon0.15_PT147H.grib2 2026-04-24 16:28 1.4M
20260424T12Z_MSC_GDPS_WindV_AGL-10m_LatLon0.15_PT147H.grib2 2026-04-24 16:28 1.6M
20260424T12Z_MSC_GDPS_WindV_AGL-120m_LatLon0.15_PT147H.grib2 2026-04-24 16:28 1.0M
20260424T12Z_MSC_GDPS_WindV_AGL-40m_LatLon0.15_PT147H.grib2 2026-04-24 16:28 1.2M
20260424T12Z_MSC_GDPS_WindV_AGL-80m_LatLon0.15_PT147H.grib2 2026-04-24 16:28 1.0M
20260424T12Z_MSC_GDPS_WindV_IsbL-0001_LatLon0.15_PT147H.grib2 2026-04-24 16:28 773K
20260424T12Z_MSC_GDPS_WindV_IsbL-0005_LatLon0.15_PT147H.grib2 2026-04-24 16:28 758K
20260424T12Z_MSC_GDPS_WindV_IsbL-0010_LatLon0.15_PT147H.grib2 2026-04-24 16:28 789K
20260424T12Z_MSC_GDPS_WindV_IsbL-0020_LatLon0.15_PT147H.grib2 2026-04-24 16:28 842K
20260424T12Z_MSC_GDPS_WindV_IsbL-0030_LatLon0.15_PT147H.grib2 2026-04-24 16:28 841K
20260424T12Z_MSC_GDPS_WindV_IsbL-0050_LatLon0.15_PT147H.grib2 2026-04-24 16:28 895K
20260424T12Z_MSC_GDPS_WindV_IsbL-0100_LatLon0.15_PT147H.grib2 2026-04-24 16:28 1.1M
20260424T12Z_MSC_GDPS_WindV_IsbL-0150_LatLon0.15_PT147H.grib2 2026-04-24 16:28 1.0M
20260424T12Z_MSC_GDPS_WindV_IsbL-0175_LatLon0.15_PT147H.grib2 2026-04-24 16:28 1.0M
20260424T12Z_MSC_GDPS_WindV_IsbL-0200_LatLon0.15_PT147H.grib2 2026-04-24 16:28 846K
20260424T12Z_MSC_GDPS_WindV_IsbL-0225_LatLon0.15_PT147H.grib2 2026-04-24 16:28 854K
20260424T12Z_MSC_GDPS_WindV_IsbL-0250_LatLon0.15_PT147H.grib2 2026-04-24 16:28 852K
20260424T12Z_MSC_GDPS_WindV_IsbL-0275_LatLon0.15_PT147H.grib2 2026-04-24 16:28 875K
20260424T12Z_MSC_GDPS_WindV_IsbL-0300_LatLon0.15_PT147H.grib2 2026-04-24 16:28 863K
20260424T12Z_MSC_GDPS_WindV_IsbL-0350_LatLon0.15_PT147H.grib2 2026-04-24 16:28 874K
20260424T12Z_MSC_GDPS_WindV_IsbL-0400_LatLon0.15_PT147H.grib2 2026-04-24 16:28 876K
20260424T12Z_MSC_GDPS_WindV_IsbL-0450_LatLon0.15_PT147H.grib2 2026-04-24 16:28 1.1M
20260424T12Z_MSC_GDPS_WindV_IsbL-0500_LatLon0.15_PT147H.grib2 2026-04-24 16:28 1.1M
20260424T12Z_MSC_GDPS_WindV_IsbL-0550_LatLon0.15_PT147H.grib2 2026-04-24 16:28 1.1M
20260424T12Z_MSC_GDPS_WindV_IsbL-0600_LatLon0.15_PT147H.grib2 2026-04-24 16:28 1.1M
20260424T12Z_MSC_GDPS_WindV_IsbL-0650_LatLon0.15_PT147H.grib2 2026-04-24 16:28 1.2M
20260424T12Z_MSC_GDPS_WindV_IsbL-0700_LatLon0.15_PT147H.grib2 2026-04-24 16:28 1.2M
20260424T12Z_MSC_GDPS_WindV_IsbL-0750_LatLon0.15_PT147H.grib2 2026-04-24 16:28 1.3M
20260424T12Z_MSC_GDPS_WindV_IsbL-0800_LatLon0.15_PT147H.grib2 2026-04-24 16:28 1.3M
20260424T12Z_MSC_GDPS_WindV_IsbL-0850_LatLon0.15_PT147H.grib2 2026-04-24 16:28 1.4M
20260424T12Z_MSC_GDPS_WindV_IsbL-0875_LatLon0.15_PT147H.grib2 2026-04-24 16:28 1.4M
20260424T12Z_MSC_GDPS_WindV_IsbL-0900_LatLon0.15_PT147H.grib2 2026-04-24 16:28 1.4M
20260424T12Z_MSC_GDPS_WindV_IsbL-0925_LatLon0.15_PT147H.grib2 2026-04-24 16:28 1.4M
20260424T12Z_MSC_GDPS_WindV_IsbL-0950_LatLon0.15_PT147H.grib2 2026-04-24 16:28 1.4M
20260424T12Z_MSC_GDPS_WindV_IsbL-0970_LatLon0.15_PT147H.grib2 2026-04-24 16:28 1.4M
20260424T12Z_MSC_GDPS_WindV_IsbL-0985_LatLon0.15_PT147H.grib2 2026-04-24 16:28 1.4M
20260424T12Z_MSC_GDPS_WindV_IsbL-1000_LatLon0.15_PT147H.grib2 2026-04-24 16:28 1.7M
20260424T12Z_MSC_GDPS_WindV_IsbL-1015_LatLon0.15_PT147H.grib2 2026-04-24 16:28 1.7M